Cook, MN

5:32 PM CDT on April 23, 2018 (GMT -0500)
Cook Municipal

Weather History for KCQM - May, 2013

Change the Weather History Date:

Wednesday, May 29, 2013

  Actual Average Record
Temperature  
Mean Temperature 62 °F -  
Max Temperature 75 °F 64 °F 89 °F (2006)
Min Temperature 50 °F 40 °F 35 °F (2008)
Degree Days  
Heating Degree Days 2    
Growing Degree Days 12 (Base 50)    
Moisture  
Dew Point 52 °F    
Average Humidity 71    
Maximum Humidity 88    
Minimum Humidity 47    
Precipitation  
Precipitation 0.06 in - - ()
Sea Level Pressure  
Sea Level Pressure 29.75 in    
Wind  
Wind Speed 5 mph (South)    
Max Wind Speed 14 mph    
Max Gust Speed 18 mph    
Visibility 10 miles    
Events Rain    
Averages and records for this station are not official NWS values.
T = Trace of Precipitation, MM = Missing Value Source: NWS Daily Summary

Daily Weather History Graph

Daily Weather History Graph

Search for Another Location

Airport or City:

Astronomy

May. 29, 2013 Rise Set
Actual Time 5:18 AM CDT 8:58 PM CDT
Civil Twilight 4:38 AM CDT 9:38 PM CDT
Nautical Twilight 3:46 AM CDT 10:31 PM CDT
Astronomical Twilight 2:32 AM CDT 11:46 PM CDT
Moon 12:11 AM CDT (5/29) 10:30 AM CDT (5/29)
Length of Visible Light 16h 59m
Length of Day
15h 40m
Waning Gibbous, 73% of the Moon is Illuminated
May 29
Waning Gibbous
May 31
Last Quarter
Jun 8
New
Jun 16
First Quarter
Jun 23
Full

Hourly Weather History & Observations

Time (CDT) Temp. Dew Point Humidity Pressure Visibility Wind Dir Wind Speed Gust Speed Precip Events Conditions
12:16 AM 55.4 °F 46.4 °F 72% 29.73 in 10.0 mi South 5.8 mph - N/A   Mostly Cloudy
12:37 AM 55.4 °F 46.4 °F 72% 29.75 in 10.0 mi South 3.5 mph - N/A   Overcast
12:56 AM 55.4 °F 44.6 °F 67% 29.75 in 10.0 mi South 5.8 mph - N/A   Overcast
1:16 AM 55.4 °F 44.6 °F 67% 29.75 in 10.0 mi South 5.8 mph - N/A   Overcast
1:37 AM 55.4 °F 44.6 °F 67% 29.74 in 10.0 mi SSE 6.9 mph - N/A   Overcast
1:56 AM 55.4 °F 44.6 °F 67% 29.74 in 10.0 mi SSE 3.5 mph - N/A   Overcast
2:16 AM 55.4 °F 44.6 °F 67% 29.76 in 10.0 mi South 5.8 mph - N/A   Overcast
2:37 AM 55.4 °F 44.6 °F 67% 29.76 in 10.0 mi South 3.5 mph - N/A   Overcast
2:56 AM 55.4 °F 44.6 °F 67% 29.76 in 10.0 mi South 3.5 mph - N/A   Overcast
3:16 AM 53.6 °F 44.6 °F 72% 29.75 in 10.0 mi Calm Calm - N/A   Scattered Clouds
3:36 AM 53.6 °F 44.6 °F 72% 29.75 in 10.0 mi Calm Calm - N/A   Clear
3:56 AM 51.8 °F 44.6 °F 76% 29.75 in 10.0 mi Calm Calm - N/A   Clear
4:17 AM 50.0 °F 44.6 °F 82% 29.75 in 10.0 mi Calm Calm - N/A   Clear
4:36 AM 50.0 °F 44.6 °F 82% 29.75 in 10.0 mi Calm Calm - N/A   Clear
4:56 AM 50.0 °F 44.6 °F 82% 29.75 in 10.0 mi Calm Calm - N/A   Clear
5:17 AM 50.0 °F 44.6 °F 82% 29.74 in 10.0 mi Calm Calm - N/A   Mostly Cloudy
5:36 AM 50.0 °F 44.6 °F 82% 29.75 in 10.0 mi South 3.5 mph - N/A   Overcast
5:42 AM 50.0 °F 44.6 °F 82% 29.75 in 10.0 mi Calm Calm - N/A   Overcast
6:17 AM 53.6 °F 48.2 °F 82% 29.77 in 10.0 mi South 6.9 mph - N/A   Overcast
6:36 AM 53.6 °F 48.2 °F 82% 29.76 in 10.0 mi South 6.9 mph - N/A   Overcast
6:57 AM 53.6 °F 50.0 °F 88% 29.76 in 10.0 mi SSW 5.8 mph - N/A   Overcast
7:17 AM 55.4 °F 51.8 °F 88% 29.78 in 10.0 mi SW 8.1 mph - N/A   Overcast
7:36 AM 55.4 °F 51.8 °F 88% 29.77 in 10.0 mi SSW 9.2 mph - N/A   Overcast
7:57 AM 55.4 °F 51.8 °F 88% 29.77 in 10.0 mi South 6.9 mph - N/A   Overcast
8:16 AM 55.4 °F 51.8 °F 88% 29.77 in 10.0 mi SSW 6.9 mph - N/A   Overcast
8:37 AM 57.2 °F 51.8 °F 82% 29.76 in 10.0 mi South 5.8 mph - N/A   Overcast
8:57 AM 59.0 °F 53.6 °F 82% 29.75 in 10.0 mi SSE 4.6 mph - N/A   Overcast
9:16 AM 60.8 °F 53.6 °F 77% 29.75 in 10.0 mi South 6.9 mph - N/A   Scattered Clouds
9:37 AM 60.8 °F 53.6 °F 77% 29.74 in 10.0 mi South 3.5 mph - N/A   Clear
9:57 AM 62.6 °F 53.6 °F 72% 29.75 in 10.0 mi SW 4.6 mph - N/A   Clear
10:16 AM 64.4 °F 53.6 °F 68% 29.75 in 10.0 mi SW 5.8 mph - N/A   Clear
10:37 AM 66.2 °F 53.6 °F 64% 29.75 in 10.0 mi SSW 4.6 mph - N/A   Clear
10:57 AM 68.0 °F 55.4 °F 64% 29.75 in 10.0 mi SSW 3.5 mph - N/A   Clear
11:16 AM 69.8 °F 55.4 °F 60% 29.74 in 10.0 mi SSE 5.8 mph - N/A   Clear
11:37 AM 71.6 °F 55.4 °F 57% 29.74 in 10.0 mi SSW 5.8 mph - N/A   Clear
11:57 AM 73.4 °F 55.4 °F 53% 29.74 in 10.0 mi SSE 5.8 mph - N/A   Clear
12:16 PM 73.4 °F 55.4 °F 53% 29.74 in 10.0 mi SSW 9.2 mph - N/A   Clear
12:37 PM 75.2 °F 55.4 °F 50% 29.75 in 10.0 mi SSW 8.1 mph 17.3 mph N/A   Clear
12:57 PM 75.2 °F 55.4 °F 50% 29.76 in 10.0 mi South 9.2 mph - N/A   Scattered Clouds
1:16 PM 75.2 °F 53.6 °F 47% 29.76 in 10.0 mi SW 5.8 mph 17.3 mph N/A   Scattered Clouds
1:37 PM 75.2 °F 53.6 °F 47% 29.75 in 10.0 mi SW 9.2 mph - N/A   Mostly Cloudy
1:57 PM 75.2 °F 55.4 °F 50% 29.74 in 10.0 mi South 11.5 mph 17.3 mph N/A   Scattered Clouds
2:16 PM 75.2 °F 55.4 °F 50% 29.74 in 10.0 mi South 9.2 mph 17.3 mph N/A   Scattered Clouds
2:37 PM 75.2 °F 55.4 °F 50% 29.74 in 10.0 mi SW 10.4 mph - N/A   Scattered Clouds
2:56 PM 75.2 °F 55.4 °F 50% 29.74 in 10.0 mi South 9.2 mph - N/A   Scattered Clouds
3:16 PM 75.2 °F 55.4 °F 50% 29.74 in 10.0 mi South 9.2 mph 18.4 mph N/A   Scattered Clouds
3:36 PM 75.2 °F 55.4 °F 50% 29.74 in 10.0 mi South 13.8 mph 18.4 mph N/A   Scattered Clouds
3:57 PM 73.4 °F 55.4 °F 53% 29.74 in 10.0 mi SSE 9.2 mph - N/A   Scattered Clouds
4:17 PM 73.4 °F 55.4 °F 53% 29.74 in 10.0 mi SSE 8.1 mph - N/A   Clear
4:36 PM 73.4 °F 55.4 °F 53% 29.74 in 10.0 mi SSE 8.1 mph - N/A   Clear
4:57 PM 73.4 °F 53.6 °F 50% 29.74 in 10.0 mi SSE 8.1 mph - N/A   Clear
5:17 PM 71.6 °F 53.6 °F 53% 29.74 in 10.0 mi South 8.1 mph - N/A   Clear
5:36 PM 71.6 °F 53.6 °F 53% 29.73 in 10.0 mi SSE 4.6 mph - N/A   Scattered Clouds
5:57 PM 71.6 °F 55.4 °F 57% 29.74 in 10.0 mi South 8.1 mph - N/A Rain Light Rain
6:17 PM 69.8 °F 55.4 °F 60% 29.74 in 10.0 mi South 4.6 mph - N/A Rain Light Rain
6:36 PM 68.0 °F 55.4 °F 64% 29.75 in 10.0 mi South 3.5 mph - N/A   Light Drizzle
6:57 PM 66.2 °F 55.4 °F 68% 29.76 in 10.0 mi South 8.1 mph - N/A   Scattered Clouds
7:16 PM 62.6 °F 57.2 °F 82% 29.75 in 7.0 mi SSE 5.8 mph - 0.01 in Rain Heavy Rain
7:36 PM 60.8 °F 57.2 °F 88% 29.75 in 4.0 mi SE 3.5 mph - 0.02 in Rain Rain
7:57 PM 60.8 °F 57.2 °F 88% 29.75 in 10.0 mi Calm Calm - N/A Rain Light Rain
8:16 PM 60.8 °F 57.2 °F 88% 29.76 in 7.0 mi Calm Calm - N/A Rain Rain
8:37 PM 60.8 °F 57.2 °F 88% 29.75 in 10.0 mi SE 3.5 mph - 0.01 in Rain Light Rain
8:56 PM 60.8 °F 57.2 °F 88% 29.73 in 10.0 mi ESE 4.6 mph - N/A Rain Light Rain
9:17 PM 60.8 °F 57.2 °F 88% 29.74 in 7.0 mi SSE 3.5 mph - N/A Rain Light Rain
9:37 PM 60.8 °F 57.2 °F 88% 29.75 in 10.0 mi Calm Calm - 0.01 in Rain Light Rain
9:56 PM 60.8 °F 57.2 °F 88% 29.74 in 2.0 mi Calm Calm - N/A Rain Rain
10:17 PM 60.8 °F 57.2 °F 88% 29.73 in 5.0 mi SE 8.1 mph - 0.02 in Rain Light Rain
10:37 PM 60.8 °F 57.2 °F 88% 29.72 in 10.0 mi SE 9.2 mph 17.3 mph 0.02 in Rain Light Rain
10:56 PM 60.8 °F 57.2 °F 88% 29.72 in 10.0 mi ESE 6.9 mph - N/A   Overcast
11:17 PM 60.8 °F 55.4 °F 82% 29.73 in 10.0 mi SE 5.8 mph - N/A Rain Rain
11:36 PM 60.8 °F 57.2 °F 88% 29.73 in 10.0 mi SE 5.8 mph - N/A   Light Drizzle
11:56 PM 60.8 °F 57.2 °F 88% 29.73 in 10.0 mi ESE 4.6 mph - N/A   Light Drizzle